Regional Weather Roundup
Issued by NWS

Home | Current Version | Previous Version | Graphics & Text | Print | Product List | Glossary On
Versions: 1 2 3 4 5 6 7 8 9 10 11 12 13 14 15 16 17 18 19 20 21 22 23 24 25 26 27 28 29 30 31 32 33 34 35 36 37 38 39 40 41 42 43 44 45 46 47 48 49 50
449
ASUS43 KFSD 232310
RWRSD

WEATHER ROUNDUP FOR SOUTH DAKOTA
NATIONAL WEATHER SERVICE SIOUX FALLS SD
500 PM CST THU FEB 23 2017

NOTE: "FAIR" INDICATES FEW OR NO CLOUDS BELOW 12,000 FEET WITH NO
SIGNIFICANT WEATHER AND/OR OBSTRUCTIONS TO VISIBILITY.


SDZ001>005-009-010-012>017-240000-
NORTHWEST AND NORTH CENTRAL SOUTH DAKOTA

CITY           SKY/WX    TMP DP  RH WIND       PRES   REMARKS
BUFFALO          N/A     30  25  81 NE18      29.88R WCI  18
FAITH            N/A     30  24  78 NE21      29.93R WCI  17
MOBRIDGE       CLOUDY    32  22  66 NE18G26   29.96S WCI  20
$$

SDZ012>016-024>037-041>051-057-063-072>074-240000-
SOUTHWEST AND SOUTH CENTRAL SOUTH DAKOTA

CITY           SKY/WX    TMP DP  RH WIND       PRES   REMARKS
RAPID CTY ARPT LGT SNOW  27  24  89 N16       29.88S FOG     WCI  15
PIERRE         CLOUDY    30  21  69 NE22G28   29.92R WCI  17
CUSTER         LGT SNOW  18  12  77 NE17G24   29.74R WCI   3
ELLSWORTH AFB  LGT SNOW  28  27  97 NE12      29.89  FOG     WCI  17
PHILIP         CLOUDY    30  23  75 NE20G26   29.90S WCI  17
PINE RIDGE     LGT SNOW  26  23  88 NE16      29.81R VSB 1   WCI  14
SPEARFISH      LGT SNOW  25  23  93 E10G17    29.89R WCI  15
WINNER         LGT SNOW  29  26  89 N24       29.82R FOG     WCI  15
$$

SDZ004>011-016>023-039-040-240000-
NORTHEAST SOUTH DAKOTA

CITY           SKY/WX    TMP DP  RH WIND       PRES   REMARKS
ABERDEEN       CLOUDY    29  20  69 NE16G28   30.00R WCI  17
WATERTOWN      CLOUDY    27  21  78 NE20      29.91S WCI  13
BROOKINGS      PTSUNNY   28  24  85 NE18      29.87S WCI  15
SISSETON         N/A     29  24  82 NE21      30.00R WCI  16
$$

SDZ017-020-022-023-036>040-048>070-240000-
SOUTHEAST SOUTH DAKOTA

CITY           SKY/WX    TMP DP  RH WIND       PRES   REMARKS
SIOUX FALLS    LGT SNOW  30  27  88 NE20G35   29.79F VSB 1   WCI  17
HURON          CLOUDY    30  23  75 NE20      29.92R WCI  17
CHAMBERLAIN    CLOUDY    32  27  83 N20G28    29.86S WCI  20
MITCHELL       LGT SNOW  31  26  82 NE23G32   29.85F WCI  18
YANKTON        PTSUNNY   32  27  80 N24G31    29.72F WCI  19
$$

ABBREVIATIONS USED IN REMARKS
   TC - TEMPERATURE IN CELSIUS
  WCI - WIND CHILL INDEX
   HX - HEAT INDEX
  VSB - VISIBILITY





USA.gov is the U.S. government's official web portal to all federal, state and local government web resources and services.